This is the latest recevied weather packets stored in our database for station/object PA5MB-15. If no packets are shown the sender has not sent any weather packets the latest 1 day(s).
| Time | Temp. | Humidity | Pressure | Rain* | Wind** | Luminosity | Snow |
|---|---|---|---|---|---|---|---|
| 1778078730 | 14.44° C | 56% | 1011 hPa | 0 mm | - | 35 W/m² | - |
| 1778077230 | 13.89° C | 58% | 1011.1 hPa | 0 mm | - | 21 W/m² | - |
| 1778076930 | 13.89° C | 59% | 1011 hPa | 0 mm | - | 19 W/m² | - |
| 1778076330 | 13.89° C | 62% | 1011 hPa | 0 mm | - | 21 W/m² | - |
| 1778076030 | 13.89° C | 62% | 1011 hPa | 0 mm | - | 22 W/m² | - |
| 1778075721 | 13.89° C | 62% | 1011 hPa | 0 mm | - | 20 W/m² | - |
| 1778075430 | 13.89° C | 64% | 1011 hPa | 0 mm | - | 19 W/m² | - |
| 1778075130 | 13.89° C | 64% | 1010.9 hPa | 0 mm | - | 18 W/m² | - |
| 1778074830 | 14.44° C | 63% | 1010.9 hPa | 0 mm | - | 18 W/m² | - |
| 1778074533 | 13.89° C | 64% | 1010.9 hPa | 0 mm | - | 19 W/m² | - |
| 1778073930 | 14.44° C | 62% | 1010.8 hPa | 0 mm | - | 28 W/m² | - |
| 1778073630 | 15° C | 60% | 1010.8 hPa | 0 mm | - | 30 W/m² | - |
| 1778073031 | 15° C | 60% | 1010.8 hPa | 0 mm | - | 49 W/m² | - |
| 1778072730 | 14.44° C | 62% | 1010.7 hPa | 0 mm | - | 51 W/m² | - |
| 1778072133 | 15° C | 62% | 1010.7 hPa | 0 mm | - | 42 W/m² | - |
| 1778071822 | 14.44° C | 62% | 1010.6 hPa | 0 mm | - | 54 W/m² | - |
| 1778070333 | 14.44° C | 64% | 1010.5 hPa | 0 mm | - | 32 W/m² | - |
| 1778070033 | 14.44° C | 64% | 1010.5 hPa | 0 mm | - | 28 W/m² | - |
| 1778069730 | 14.44° C | 64% | 1010.5 hPa | 0 mm | - | 26 W/m² | - |
| 1778069133 | 13.89° C | 64% | 1010.4 hPa | 0 mm | - | 53 W/m² | - |
| 1778068833 | 13.89° C | 67% | 1010.4 hPa | 0 mm | - | 28 W/m² | - |
| 1778068533 | 14.44° C | 65% | 1010.4 hPa | 0 mm | - | 20 W/m² | - |
| 1778068233 | 15° C | 59% | 1010.3 hPa | 0 mm | - | 26 W/m² | - |
| 1778067633 | 14.44° C | 59% | 1010.3 hPa | 0 mm | - | 34 W/m² | - |
| 1778067333 | 14.44° C | 59% | 1010.3 hPa | 0 mm | - | 35 W/m² | - |
* Rain latest hour (hover to see other rain measurements)
** Current wind speed in m/s (hover to see current wind gust speed)